Location: Moonridge Observatory
(39.2268°N, 77.7914°W)
Time: 17:47:47
(UTC-04:00)

CZ-2C R/B - Visible Passes

Search period start: 02 September 2015 00:00
Search period end: 12 September 2015 00:00
Orbit: 704 x 909 km, 98.2° (Epoch: 01 September)

Date Brightness Start Highest point End Pass type
(mag) Time Alt. Az. Time Alt. Az. Time Alt. Az.
02 Sep 5.7 01:48:53 14° NNE 01:48:53 14° NNE 01:49:51 10° NNE visible
02 Sep 5.4 03:29:57 13° NNW 03:29:57 13° NNW 03:30:35 10° NNW visible
03 Sep 5.3 03:05:04 16° NNW 03:05:04 16° NNW 03:06:07 10° NNW visible
04 Sep 5.4 02:40:10 17° N 02:40:10 17° N 02:41:23 10° N visible
05 Sep 5.6 02:15:17 16° NNE 02:15:17 16° NNE 02:16:25 10° N visible
06 Sep 5.8 01:50:24 13° NNE 01:50:24 13° NNE 01:51:09 10° NNE visible
06 Sep 5.5 03:31:29 11° NNW 03:31:29 11° NNW 03:31:46 10° NNW visible
07 Sep 5.5 03:06:35 14° NNW 03:06:35 14° NNW 03:07:19 10° NNW visible
08 Sep 5.6 02:41:42 15° N 02:41:42 15° N 02:42:37 10° N visible
09 Sep 5.7 02:16:50 14° N 02:16:50 14° N 02:17:42 10° N visible
10 Sep 5.9 01:51:56 12° NNE 01:51:56 12° NNE 01:52:29 10° NNE visible
11 Sep 5.7 03:08:09 12° NNW 03:08:09 12° NNW 03:08:33 10° NNW visible
